Hourly Weather Roundup
Issued by NWS Central Illinois

Home | Current Version | Previous Version | Text Only | Print | Product List | Glossary On
Versions: 1 2 3 4 5 6 7 8 9 10 11 12 13 14 15 16 17 18 19 20 21 22 23 24 25 26 27 28 29 30 31 32 33 34 35 36 37 38 39 40 41 42 43 44 45 46 47 48 49 50
000
NZUS43 KILX 240910
HWRILX

AREA WEATHER ROUNDUP
NATIONAL WEATHER SERVICE, LINCOLN IL
400 AM CDT WED AUG 24 2016


CITY           SKY/WX    TMP DP  RH WIND       PRES   REMARKS
BLOOMINGTON    CLOUDY    70  68  93 S14       30.06F
CHAMPAIGN      MOCLDY    70  66  87 S10       30.09F
DANVILLE       PTCLDY    69  64  84 S6        30.09F
DECATUR        CLOUDY    73  69  87 S13       30.07F
EFFINGHAM      CLOUDY    72  72 100 SE5       30.12F
FLORA          MOCLDY    72  71  96 S6        30.12S
GALESBURG      TSTM      71  70  97 S10       29.98F
JACKSONVILLE   CLOUDY    74  72  93 S10G16    30.02F
LACON          CLOUDY    71  68  90 S9G17     30.00F
LAWRENCEVILLE  PTCLDY    70  67  90 S6        30.14S
LITCHFIELD     CLOUDY    73  69  88 SE13      30.07F
$$


CITY           SKY/WX    TMP DP  RH WIND       PRES   REMARKS
LINCOLN        CLOUDY    73  71  96 S8        30.04F
MACOMB         CLOUDY    72  71  96 S9        29.99F
MATTOON        CLOUDY    69  66  90 S7        30.10S
MT CARMEL AP   CLOUDY    69  67  92 S5        30.14S
OLNEY-NOBLE AP CLOUDY    70  70 100 S5        30.13S
PARIS          CLOUDY    69  66  91 CALM      30.12S
PEORIA         CLOUDY    72  71  97 S10       30.01F
PONTIAC        CLOUDY    71  69  94 S8        30.05F
RANTOUL        MOCLDY    70  67  90 S6        30.09F
ROBINSON       CLOUDY    69  66  92 S6        30.14S
SPRINGFIELD    CLOUDY    74  71  91 S13       30.03F
TAYLORVILLE    MOCLDY    72  71  96 S12G20    30.07F
$$

...REGIONAL REPORTS...


CITY           SKY/WX    TMP DP  RH WIND       PRES   REMARKS
CHICAGO O`HARE CLOUDY    72  64  76 S14       30.03F
KANKAKEE       MOCLDY    69  64  81 S10       30.07F
MOLINE         TSTM      72  70  93 S9        29.93F FOG
MOUNT STERLING LGT RAIN  71  70  97 S7        29.99F
MOUNT VERNON   MOCLDY    73  66  78 S5        30.13S
PITTSFIELD     CLOUDY    74  73  95 S8        30.01F
QUINCY         CLOUDY    75  74  96 S13       29.97F
ROCKFORD       CLOUDY    70  66  87 S12       29.99F
$$


CITY           SKY/WX    TMP DP  RH WIND       PRES   REMARKS
BURLINGTON     TSTM      73  73 100 S14G35    29.95S FOG
CEDAR RAPIDS   LGT RAIN  73  73 100 S13       29.90S
DES MOINES     CLOUDY    70  68  93 SW9       29.86R
KIRKSVILLE     CLOUDY    77  70  79 SW12G24   29.95F
OTTUMWA        LGT RAIN  74  71  91 SW6       29.90F
ST LOUIS       MOCLDY    76  72  87 S10       30.06S
$$


CITY           SKY/WX    TMP DP  RH WIND       PRES   REMARKS
TERRE HAUTE    PTCLDY    70  63  78 S3        30.13S
EVANSVILLE     CLOUDY    72  67  84 CALM      30.15S
INDIANAPOLIS   CLOUDY    71  63  75 S7        30.14S
LAFAYETTE      CLOUDY    68  64  87 CALM      30.12F
MADISON        CLOUDY    71  68  90 S18       29.91F
MILWAUKEE      CLOUDY    74  65  73 S13       29.97F
$$






USA.gov is the U.S. government's official web portal to all federal, state and local government web resources and services.